TimeCDT,TemperatureF,Dew PointF,Humidity,Sea Level PressureIn,VisibilityMPH,Wind Direction,Wind SpeedMPH,Gust SpeedMPH,PrecipitationIn,Events,Conditions,WindDirDegrees,DateUTC
12:53 AM,75.0,64.0,69,30.03,10.0,South,8.1,-,N/A,,Clear,170,2012-09-27 05:53:00
1:53 AM,73.0,64.9,76,30.03,10.0,South,6.9,-,N/A,,Clear,170,2012-09-27 06:53:00
2:53 AM,71.1,64.9,81,30.04,10.0,South,5.8,-,N/A,,Partly Cloudy,170,2012-09-27 07:53:00
3:11 AM,71.1,66.0,84,30.09,10.0,South,5.8,-,N/A,,Mostly Cloudy,170,2012-09-27 08:11:00
3:53 AM,71.1,66.0,84,30.05,10.0,South,3.5,-,N/A,,Mostly Cloudy,170,2012-09-27 08:53:00
4:03 AM,71.1,66.0,84,30.10,10.0,SSE,3.5,-,N/A,,Scattered Clouds,160,2012-09-27 09:03:00
4:14 AM,70.0,66.0,87,30.10,10.0,Calm,Calm,-,N/A,,Mostly Cloudy,0,2012-09-27 09:14:00
4:23 AM,70.0,66.0,87,30.10,10.0,Calm,Calm,-,N/A,,Partly Cloudy,0,2012-09-27 09:23:00
4:53 AM,70.0,66.0,87,30.04,10.0,Calm,Calm,-,N/A,,Partly Cloudy,0,2012-09-27 09:53:00
5:23 AM,70.0,66.0,87,30.10,10.0,Calm,Calm,-,N/A,,Partly Cloudy,0,2012-09-27 10:23:00
5:53 AM,69.1,66.0,90,30.05,9.0,Calm,Calm,-,N/A,,Partly Cloudy,0,2012-09-27 10:53:00
6:13 AM,70.0,66.0,87,30.11,9.0,Calm,Calm,-,N/A,,Mostly Cloudy,0,2012-09-27 11:13:00
6:53 AM,70.0,66.0,87,30.04,9.0,SE,3.5,-,N/A,,Overcast,140,2012-09-27 11:53:00
7:09 AM,70.0,66.9,90,30.10,8.0,Calm,Calm,-,N/A,,Overcast,0,2012-09-27 12:09:00
7:53 AM,70.0,66.9,90,30.04,6.0,SSE,4.6,-,N/A,,Mostly Cloudy,150,2012-09-27 12:53:00
8:53 AM,72.0,69.1,91,30.06,6.0,South,3.5,-,N/A,,Overcast,190,2012-09-27 13:53:00
9:46 AM,73.9,69.1,85,30.12,9.0,SSE,4.6,-,N/A,,Overcast,160,2012-09-27 14:46:00
9:53 AM,75.0,69.1,82,30.07,9.0,South,8.1,-,N/A,,Overcast,170,2012-09-27 14:53:00
10:04 AM,75.9,69.1,79,30.13,10.0,South,6.9,-,N/A,,Overcast,170,2012-09-27 15:04:00
10:17 AM,75.9,69.1,79,30.13,10.0,South,8.1,-,N/A,,Overcast,180,2012-09-27 15:17:00
10:53 AM,75.9,69.1,79,30.09,10.0,South,8.1,-,N/A,,Overcast,180,2012-09-27 15:53:00
11:26 AM,79.0,69.1,72,30.13,10.0,SSE,6.9,-,N/A,,Mostly Cloudy,160,2012-09-27 16:26:00
11:53 AM,81.0,68.0,65,30.08,10.0,SSE,6.9,-,N/A,,Partly Cloudy,160,2012-09-27 16:53:00
12:53 PM,82.9,66.9,58,30.06,10.0,South,6.9,-,N/A,,Scattered Clouds,190,2012-09-27 17:53:00
1:53 PM,84.0,66.0,55,30.04,10.0,SE,4.6,-,N/A,,Partly Cloudy,130,2012-09-27 18:53:00
2:53 PM,84.9,64.0,49,30.01,10.0,Variable,6.9,-,N/A,,Partly Cloudy,0,2012-09-27 19:53:00
3:53 PM,87.1,61.0,41,29.99,10.0,SE,6.9,-,N/A,,Clear,140,2012-09-27 20:53:00
4:53 PM,86.0,63.0,46,29.97,10.0,ESE,6.9,-,N/A,,Clear,120,2012-09-27 21:53:00
5:53 PM,86.0,63.0,46,29.97,10.0,East,6.9,-,N/A,,Partly Cloudy,90,2012-09-27 22:53:00
6:53 PM,84.0,63.0,49,29.99,10.0,East,8.1,-,N/A,,Clear,100,2012-09-27 23:53:00
7:53 PM,81.0,63.0,54,30.00,10.0,East,4.6,-,N/A,,Clear,80,2012-09-28 00:53:00
8:53 PM,78.1,63.0,60,30.01,10.0,ENE,5.8,-,N/A,,Clear,70,2012-09-28 01:53:00
9:53 PM,78.1,62.1,58,30.03,10.0,East,5.8,-,N/A,,Clear,80,2012-09-28 02:53:00
10:53 PM,78.1,63.0,60,30.04,10.0,East,5.8,-,N/A,,Mostly Cloudy,100,2012-09-28 03:53:00
11:53 PM,75.0,64.0,69,30.04,10.0,South,4.6,-,N/A,,Clear,180,2012-09-28 04:53:00